Regional Weather Roundup
Issued by NWS Bismarck, ND

Home | Current Version | Previous Version | Text Only | Print | Product List | Glossary On
Versions: 1 2 3 4 5 6 7 8 9 10 11 12 13 14 15 16 17 18 19 20 21 22 23 24 25 26 27 28 29 30 31 32 33 34 35 36 37 38 39 40 41 42 43 44 45 46 47 48 49 50
000
ASUS43 KBIS 280810
RWRBIS

NWR BROADCAST TEXT
NATIONAL WEATHER SERVICE BISMARCK ND
300 AM CDT THU MAY 28 2015

NOTE: "FAIR" INDICATES FEW OR NO CLOUDS BELOW 12,000 FEET WITH NO
SIGNIFICANT WEATHER AND/OR OBSTRUCTIONS TO VISIBILITY.


CITY           SKY/WX    TMP DP  RH WIND       PRES   REMARKS
WILLISTON      CLOUDY    58  54  86 SE5       29.88F
MINOT          CLOUDY    59  56  89 E9        29.90F
MINOT AFB      CLOUDY    58  58 100 E9        29.90F
BISMARCK       MOCLDY    59  57  93 E7        29.90F
DICKINSON      FOG       52  50  93 W3        29.89F VSB 1/4
GARRISON         N/A     60  57  89 E5        29.90F
HETTINGER ARPT FOG       49  48  97 CALM      29.91F VSB 1/4
JAMESTOWN      LGT RAIN  61  57  87 S9        29.98S
BEACH          FAIR      48  48 100 CALM      29.91F
CARRINGTON     CLOUDY    59  59 100 S14       29.97S
CROSBY         CLOUDY    57  57 100 E10       29.90F
HARVEY         PTSUNNY   57  57 100 SE7       29.93F
HAZEN          FAIR      55  55 100 NE3       29.90F
LINTON         CLOUDY    59  59 100 E10       29.91F
MANDAN         FAIR      57  57 100 SE7       29.90F
OAKES            N/A     63  59  88 SW8       30.00R
STANLEY        CLOUDY    57  57 100 E5        29.91F
WATFORD CITY   CLOUDY    55  55 100 E7        29.87F
$$

CITY           SKY/WX    TMP DP  RH WIND       PRES   REMARKS
GRAND FORKS    CLOUDY    58  52  80 CALM      29.95S
GRAND FORKS AF LGT RAIN  58  54  86 NE6       29.95F
DEVILS LAKE    CLOUDY    59  52  77 E8        29.94F
FARGO          CLOUDY    65  54  67 E9        29.93F
CANDO          LGT RAIN  55  50  82 E9        29.97S
CAVALIER       FAIR      57  46  67 CALM      29.99F
GRAFTON        FAIR      59  46  63 NW8       29.98F
LANGDON        PTSUNNY   55  46  71 E7        29.99F
ROLLA          LGT RAIN  57  57 100 S5        29.99F
WALHALLA       FAIR      54  54 100 MISG      29.99F
$$

CITY           SKY/WX    TMP DP  RH WIND       PRES   REMARKS
ABERDEEN       CLOUDY    63  58  83 E7        29.94F
MOBRIDGE       PTCLDY    62  60  93 SE8       29.87F
BUFFALO          N/A     53  52  96 NW7       29.85F
RAPID CITY     MOCLDY    55  52  89 S6        29.93S
GLASGOW        CLEAR     55  52  89 SE6       29.86F
SIDNEY         MOCLDY    52  50  93 CALM      29.89S
WOLF POINT     CLEAR     54  51  90 CALM      29.87F
GLENDIVE       MOCLDY    52  50  93 SW5       29.90S
MILES CITY     FOG       53  52  96 CALM      29.91F VSB 1
BAKER          MOCLDY    49  48  97 CALM      29.93S FOG
$$

CITY           SKY/WX    TMP DP  RH WIND       PRES   REMARKS
BILLINGS       PTCLDY    53  46  77 SW13      29.98F
GREAT FALLS    MOCLDY    49  46  90 SW6       29.99F
REGINA         CLOUDY    54  48  82 N5        29.93F
ESTEVAN        LGT RAIN  55  54  94 E7        29.92F FOG
$$



USA.gov is the U.S. government's official web portal to all federal, state and local government web resources and services.